sat.trackr.live / text

‹ back to catalog

STARLINK-35586

NORAD 66159 · 2025-240P

PAYLOAD ACTIVE UNKNOWN

§ Identity

Operator
Country
US
Launch date
2025-10-25
Launch site
AFWTR
Launch vehicle
Mass (kg)
RCS (m²)

Purposes: comms

External: N2YO · Heavens-Above · Gunter

§ Orbital elements

Epoch: 2026-09-20T22:03:39.834720Z

Period
93.85 min
Inclination
53.1530°
Eccentricity
0.0002923
Mean motion
15.34352772 rev/d
Perigee alt
460.8 km
Apogee alt
464.8 km
Semi-major
6,841.0 km
B*
6.3271e-4
RAAN
232.1097°
Arg perigee
93.0245°
Mean anomaly
267.1092°
Rev number
5,193

§ Raw data

STARLINK-355861 66159U 25240P   26263.91921105  .00021030  00000+0  63271-3 0  99942 66159  53.1530 232.1097 0002923  93.0245 267.1092 15.34352772 51933

JSON: /api/v1/satellites/66159 · /tle

For live sub-satellite position, see the globe view (requires WebGL).

§ Visibility from observer

Set your observer location to see the next 7 days of passes ≥ 10°. The values pass through the URL so the page stays shareable.

No JS? Fill the form by hand. The geolocation button needs JavaScript.